Kuchera_Ratio
4.5 3.2 2.8 4.1 5.0 3.7 6.2 2.7 6.9 1.9 3.0 0.0 0.0 0.0 0.0 0.0 0.0 0.0 0.0 0.0 0.0 0.0 0.0 0.0 0.0 0.0 0.0 0.0 0.0 0.0 0.0 0.0 0.0 0.0 0.0 0.0 0.0 0.0 0.0 0.0 0.6 1.7 2.4 2.8
7.6 0.3 3.0 4.6 3.1 1.3 0.0 0.0 0.0 0.0 0.0 0.0 0.0 0.0 0.0 0.0 0.0 0.0 0.0 0.0 0.0 0.0 0.0 0.0 0.0 0.0 0.0 0.0 0.0 0.0 0.0 0.0 0.0 0.0 0.0 0.0 0.0 0.0 0.1 1.0 2.0 2.8 3.5 4.5
8.2 3.0 2.2 7.1 1.9 1.0 0.0 0.0 0.0 4.8 0.0 0.0 0.0 0.0 0.0 0.0 0.0 0.0 0.0 0.0 0.0 0.0 0.0 0.0 0.0 0.0 0.0 0.0 0.0 0.0 0.0 0.0 0.0 0.0 0.0 0.0 0.1 0.7 1.7 2.6 3.3 4.0 4.7 5.5
6.4 4.2 12.0 0.0 0.0 0.0 0.0 0.0 0.0 0.0 0.0 0.0 0.0 0.0 0.0 0.0 0.0 0.0 0.0 0.0 0.0 0.0 0.0 0.0 0.0 0.0 0.0 0.0 0.0 0.0 0.0 0.0 0.0 0.0 0.0 1.0 1.4 2.5 3.0 3.6 4.7 5.7 6.1 6.5
6.2 10.2 0.0 0.0 0.0 0.0 1.7 1.3 0.0 0.0 0.0 0.0 0.0 0.0 0.0 0.0 0.0 0.0 0.0 0.0 0.0 0.0 0.0 0.0 0.0 0.0 0.0 0.0 0.0 0.0 0.0 0.0 0.0 0.0 1.1 2.4 3.4 3.9 4.2 5.6 6.3 6.9 7.6 8.0
6.4 11.7 12.0 0.0 0.0 0.0 0.0 1.2 0.0 0.0 0.0 0.0 0.0 0.0 0.0 0.0 0.0 0.0 0.0 0.0 0.0 0.0 0.0 0.0 0.0 0.0 0.0 0.0 0.0 0.0 0.0 0.0 0.0 0.7 2.0 3.4 4.4 5.0 6.0 6.9 8.0 8.5 8.5 8.6
8.2 6.9 1.6 0.0 0.0 0.0 2.6 0.0 0.0 0.0 0.0 0.0 0.0 0.0 0.0 0.0 0.0 0.0 0.0 0.0 0.0 0.0 0.0 0.0 0.0 0.0 0.0 0.0 0.0 0.0 0.0 0.6 1.6 2.1 3.0 4.1 5.2 6.4 7.3 8.7 9.4 10.0 10.9 10.1
3.5 10.1 6.9 0.0 0.0 0.0 0.0 0.0 0.0 0.0 0.0 0.0 0.0 0.0 0.0 0.0 0.0 0.0 0.0 0.0 0.0 0.0 0.0 0.0 0.0 0.0 0.0 0.0 0.0 0.3 1.2 2.3 3.3 3.7 4.5 5.4 6.5 8.1 8.9 10.1 11.8 12.3 12.5 12.1
0.7 0.0 0.0 0.0 0.0 0.0 0.0 0.0 0.0 0.0 0.0 0.0 0.0 0.0 0.0 0.0 0.0 0.0 0.0 0.0 0.0 0.0 0.0 0.0 0.0 0.0 0.0 1.3 1.6 1.8 2.6 4.0 4.7 5.3 6.2 7.5 8.5 9.6 10.6 12.1 12.9 13.1 13.2 12.8
0.0 0.0 0.0 0.0 0.0 0.0 0.0 0.0 0.0 0.0 0.0 0.0 0.0 0.0 0.0 0.0 0.0 0.0 0.0 0.0 0.0 0.0 0.0 0.0 0.0 0.0 0.0 1.7 2.2 2.8 4.1 5.3 6.0 6.9 8.5 9.0 9.4 10.7 12.4 13.0 13.4 12.4 12.4 12.6
0.0 0.0 0.0 0.0 0.0 0.0 0.0 0.0 0.0 0.0 0.0 0.0 0.0 0.0 0.0 0.0 0.0 0.0 0.0 0.0 0.0 0.0 0.0 0.6 1.0 1.6 2.7 3.0 2.9 4.0 5.6 7.0 7.9 8.7 9.5 10.6 11.3 11.8 12.3 11.8 11.5 11.7 12.1 12.5
0.0 0.0 0.0 0.0 0.0 0.0 0.0 0.0 0.0 0.0 0.0 0.0 0.0 0.0 0.0 0.0 0.0 0.0 0.0 0.0 0.0 0.0 1.2 3.4 2.9 3.7 4.3 4.0 3.9 4.8 6.6 7.9 9.0 9.9 11.1 12.2 12.7 12.9 7.7 5.0 3.6 3.3 3.4 6.0
0.0 0.0 0.0 0.0 0.0 0.0 0.0 0.0 0.0 0.0 0.0 0.0 0.0 0.0 0.0 0.0 0.0 0.0 0.0 0.0 0.4 1.6 2.7 4.0 4.5 5.3 6.1 5.6 5.3 6.3 7.8 9.2 10.4 11.8 12.5 13.1 13.6 13.9 14.6 11.5 5.9 5.4 5.1 5.0
0.0 0.0 0.0 0.0 0.0 0.0 0.0 0.0 0.0 0.0 0.0 0.0 0.0 0.0 0.0 0.0 0.0 0.1 1.3 1.2 1.9 3.1 4.5 5.1 5.9 6.7 7.2 6.7 7.1 8.0 9.4 6.2 11.9 12.6 13.0 13.2 13.3 13.7 14.0 14.6 15.0 14.3 10.1 8.2
0.0 0.0 0.0 0.0 0.0 0.0 0.0 0.0 0.0 0.0 0.0 0.0 0.0 0.0 0.0 0.0 0.0 1.8 2.6 2.8 3.5 4.4 5.7 6.3 7.2 8.6 8.4 7.7 8.4 9.9 11.2 11.8 12.0 12.6 13.1 12.6 13.5 13.8 14.2 14.7 14.8 15.0 14.4 12.4
0.0 0.0 0.0 0.0 0.0 0.0 0.0 0.0 0.0 0.0 0.0 0.0 0.0 0.0 0.0 0.4 2.2 3.0 3.3 3.5 4.0 6.4 7.3 7.7 8.4 9.4 8.6 8.7 10.2 11.5 12.1 8.5 9.2 13.2 13.7 14.0 14.2 14.7 14.9 14.9 15.4 15.4 15.2 14.7
0.0 0.0 0.0 0.0 0.0 0.0 0.0 0.0 0.0 0.0 0.0 0.0 0.0 0.0 0.5 2.2 3.9 5.4 6.5 5.7 5.4 7.2 7.6 7.5 9.3 9.7 9.7 10.4 11.2 12.4 13.0 13.3 9.6 14.0 14.4 14.6 14.8 15.1 14.8 15.0 15.4 15.3 15.4 13.8
0.0 0.0 0.0 0.0 0.0 0.0 0.0 0.0 0.0 0.0 0.0 0.0 0.0 0.7 2.1 3.1 4.2 5.9 7.8 7.8 8.2 9.4 9.7 9.9 10.1 10.5 11.1 11.6 12.3 12.9 13.5 14.1 14.5 15.0 15.0 15.0 15.0 15.0 15.5 15.4 15.6 16.0 15.6 14.7
0.0 0.0 0.0 0.0 0.0 0.0 0.0 0.0 0.0 0.0 0.0 0.0 1.2 2.8 3.9 5.0 6.2 7.9 8.8 8.6 9.5 10.6 12.4 11.2 7.0 11.5 12.1 10.5 12.9 13.5 14.2 14.9 15.4 15.7 15.6 14.2 15.9 15.6 15.8 15.9 16.0 16.0 16.2 16.0
0.0 0.0 0.0 0.0 0.0 0.0 0.0 0.0 0.0 0.0 0.7 1.3 2.9 3.7 4.9 6.7 8.4 9.6 10.2 11.2 11.9 11.3 12.2 12.1 12.1 12.6 12.9 12.8 10.7 14.3 15.0 15.8 16.3 16.7 17.0 16.3 16.7 16.5 16.5 15.8 15.9 16.7 16.7 16.2
0.0 0.0 0.0 0.0 0.0 0.0 0.0 0.0 0.0 0.2 2.9 3.3 3.2 5.1 6.7 8.2 10.3 10.7 11.4 12.2 12.9 12.2 12.4 11.3 12.7 13.1 13.6 13.8 14.4 15.3 16.1 16.6 17.1 17.6 18.0 17.9 17.9 18.0 17.7 17.6 17.7 17.1 17.1 16.7
0.0 0.0 0.0 0.0 0.0 0.4 0.3 0.9 1.3 2.2 3.8 5.1 6.4 7.0 8.3 9.5 10.8 11.9 12.5 12.0 13.1 9.7 12.9 13.2 13.2 10.0 13.1 13.2 15.6 16.4 17.0 17.4 17.8 18.1 18.6 18.8 18.9 19.3 19.6 19.3 19.4 18.5 17.7 18.4
1.5 0.5 0.5 0.1 0.4 1.1 2.7 3.5 3.3 4.3 5.5 6.6 7.5 8.8 9.7 11.0 12.3 12.3 12.6 13.9 13.5 12.0 13.7 13.6 9.8 8.1 12.1 16.0 16.8 17.3 17.6 18.0 18.3 18.7 19.2 19.4 19.6 20.1 20.4 20.1 19.0 18.9 19.6 19.3
2.9 1.8 1.1 0.9 1.5 3.1 3.8 6.1 6.3 7.6 8.0 9.4 10.5 11.1 10.9 11.7 13.1 13.6 12.9 10.1 9.3 13.2 14.3 13.6 12.5 10.7 13.4 17.0 17.4 17.9 18.3 18.8 19.1 19.1 19.2 16.8 20.1 20.5 20.0 19.6 20.1 20.0 19.9 19.3
2.6 2.6 2.4 2.3 3.0 4.2 4.6 6.2 7.8 9.1 10.2 10.7 11.6 12.3 12.9 13.2 12.8 14.0 14.3 14.4 12.2 15.3 15.8 13.0 12.4 13.4 17.2 17.6 18.1 18.6 19.0 19.0 19.1 19.4 20.0 20.0 20.4 20.7 20.8 20.7 20.8 20.3 18.7 18.9
2.9 3.6 4.2 3.7 3.1 4.9 6.5 7.9 8.1 9.8 11.1 11.6 12.3 13.0 13.6 14.0 14.2 14.7 15.0 15.3 15.7 15.3 16.6 17.0 17.3 17.3 17.9 18.4 18.6 19.0 19.0 19.3 19.4 19.7 19.0 20.4 20.7 20.9 20.8 20.6 20.5 20.2 19.8 19.5
4.0 4.5 5.5 6.4 6.8 7.1 8.0 9.1 9.0 10.5 12.2 12.6 12.7 13.7 14.5 14.8 15.1 15.3 15.6 16.0 16.5 16.9 17.2 17.4 17.7 17.9 17.9 18.1 18.7 18.9 19.2 19.5 19.2 19.3 20.2 20.7 20.7 20.5 20.5 20.5 20.2 19.7 19.2 18.9